Regional Weather Roundup
Issued by NWS

Home | Current Version | Previous Version | Text Only | Print | Product List | Glossary Off
Versions: 1 2 3 4 5 6 7 8 9 10 11 12 13 14 15 16 17 18 19 20 21 22 23 24 25 26 27 28 29 30 31 32 33 34 35 36 37 38 39 40 41 42 43 44 45 46 47 48 49 50

000
ASUS43 KMKX 280959
RWRWI

WISCONSIN REGIONAL WEATHER ROUNDUP
NATIONAL WEATHER SERVICE MILWAUKEE/SULLIVAN WI
500 AM CDT SAT MAR 28 2015

NOTE: "FAIR" INDICATES FEW OR NO CLOUDS BELOW 12,000 FEET WITH NO
SIGNIFICANT WEATHER AND/OR OBSTRUCTIONS TO VISIBILITY.

WIZ001-002-006>008-014>016-023>028-281100-
NORTHWEST WISCONSIN

CITY           SKY/WX    TMP DP  RH WIND       PRES   REMARKS
SUPERIOR ARPT  CLEAR     12  10  91 CALM      30.20F
ASHLAND        CLEAR     11   7  84 CALM      30.21S
HAYWARD        CLEAR     14   7  73 CALM      30.18S
SIREN          CLEAR     14   8  78 CALM      30.19S
CUMBERLAND     CLEAR     19  14  79 CALM      30.17S
RICE LAKE      CLEAR     18  15  86 CALM      30.20S
CHETEK         CLEAR     14  12  90 CALM      30.19S
LADYSMITH      CLEAR     18  14  85 CALM      30.19S
EAU CLAIRE     CLEAR     16  11  80 NE3       30.20R
MENOMONIE      CLEAR     20  16  85 CALM      30.20S
NEW RICHMOND   CLEAR     19  14  83 CALM      30.19S
OSCEOLA        CLEAR     19  14  82 CALM      30.22S
$$

WIZ003>005-009-010-017-018-281100-
NORTH CENTRAL WISCONSIN

CITY           SKY/WX    TMP DP  RH WIND       PRES   REMARKS
MANITOWISH WTR CLEAR      5   3  91 CALM      30.16R
ARBOR VITAE    CLEAR      9   4  82 CALM      30.16R
WOODRUFF       CLEAR      9   4  82 CALM      30.16R
RHINELANDER    CLEAR      8   3  80 E3        30.17R
EAGLE RIVER    FAIR       1  -3  81 CALM      30.16S
LAND O LAKES   CLEAR     -6 -10  81 CALM      30.17S
PHILLIPS       CLEAR     11   8  85 CALM      30.16S
TOMAHAWK       CLEAR      3   0  85 CALM      30.18S
MEDFORD        CLEAR     13  10  90 S3        30.17S
MERRILL        CLEAR      9   6  87 CALM      30.19S
$$

WIZ029-030-035-036-043>047-281100-
CENTRAL WISCONSIN

CITY           SKY/WX    TMP DP  RH WIND       PRES   REMARKS
WAUSAU         CLEAR     15   8  73 E3        30.19S
MOSINEE        CLEAR     14  10  85 CALM      30.21S
MARSHFIELD     CLEAR     18  10  71 CALM      30.20R
STEVENS POINT  CLEAR     12   7  79 CALM      30.22S
WAUPACA        CLEAR     18  13  81 CALM      30.25R
WAUTOMA        NOT AVBL
WISC RAPIDS    CLEAR     10   6  84 CALM      30.23R
CAMP DOUGLAS   NOT AVBL
$$

WIZ011>013-019>022-031-037>040-048>050-281100-
NORTHEAST WISCONSIN

CITY           SKY/WX    TMP DP  RH WIND       PRES   REMARKS
ANTIGO         CLEAR     13   5  71 SE5       30.18S WCI   5
SHAWANO        CLEAR     15  10  83 CALM      30.25S
OCONTO         CLEAR     10   6  87 CALM      30.26S
STURGEON BAY   CLEAR     16   0  48 CALM      30.27S
GREEN BAY      CLEAR     19  12  74 CALM      30.26R
MANITOWOC      NOT AVBL
APPLETON       CLEAR     19  10  68 CALM      30.24S
CLINTONVILLE   CLEAR     14  10  85 CALM      30.24S
OSHKOSH        CLEAR     16  10  77 CALM      30.24S
$$

WIZ032>034-041-042-053>061-281100-
SOUTHWEST WISCONSIN

CITY           SKY/WX    TMP DP  RH WIND       PRES   REMARKS
LA CROSSE      PTCLDY    22  14  71 E5        30.23R WCI  16
SPARTA         PTCLDY    12   9  87 CALM      30.22S
VIROQUA        CLEAR     18  10  70 E7        30.18S WCI   9
BOSCOBEL       CLEAR     15  11  83 CALM      30.24R
PRAIRIE DU CHI FAIR      17  10  76 CALM      30.23R
PLATTEVILLE    CLEAR     22  15  74 E6        30.20S WCI  15
$$

WIZ056-057-062-063-064-067-068-281100-
SOUTH CENTRAL WISCONSIN

CITY           SKY/WX    TMP DP  RH WIND       PRES   REMARKS
REEDSBURG      CLEAR     15  12  86 CALM      30.22R
BARABOO/DELLS  CLEAR     17   9  71 CALM      30.22R
LONE ROCK      NOT AVBL
MINERAL POINT  PTCLDY    21  10  63 SE5       30.19S WCI  15
MADISON        CLEAR     16  10  77 CALM      30.24R
MIDDLETON      CLEAR     21  15  78 E3        30.23R
WATERTOWN      CLEAR     14  12  91 CALM      30.24R
MONROE         CLEAR     19  16  86 SE5       30.21R WCI  13
JANESVILLE     CLEAR     18  16  93 CALM      30.23R
$$

WIZ051-052-058>065-066-070>072-281100-
SOUTHEAST WISCONSIN

CITY           SKY/WX    TMP DP  RH WIND       PRES   REMARKS
MILWAUKEE      PTCLDY    20  11  68 NW6       30.25R WCI  12
WAUKESHA       CLEAR     16  12  86 W3        30.25R
MILWAUKEE/TIMM CLEAR     18  10  73 CALM      30.25R
RACINE         CLEAR     18  12  77 NW6       30.26R WCI  10
BURLINGTON     CLEAR     12  10  91 CALM      30.24R
KENOSHA        CLEAR     17  12  80 NW3       30.24R
FOND DU LAC    CLEAR     13   9  84 CALM      30.25R
SHEBOYGAN      CLEAR     17  11  77 CALM      30.25R
WEST BEND      CLEAR     14  12  92 CALM      30.24R
JUNEAU         CLEAR     16  12  84 CALM      30.24S
$$

LSZ147-162-281100-
LAKE SUPERIOR

STATION/POSITION TIME  TEMP    WIND        PRES    WAVE
                       AIR SEA DIR/SP/G            HT/PER
                 (UTC) (F)     (DEG/KT/KT) (MB)    (FT/S)
DEVILS ISLAND    0900   25      CALM  /  1 1024.4R
PORT WING        0900   14     130/  2/  4 1023.0F
SAXON HARBOR     0900   12        CALM     1023.0
$$

LMZ867-665-643>646-281100-
LAKE MICHIGAN

STATION/POSITION TIME  TEMP    WIND        PRES    WAVE
                       AIR SEA DIR/SP/G            HT/PER
                 (UTC) (F)     (DEG/KT/KT) (MB)    (FT/S)
NORTHPORT PIER   0900   16     290/  4/  6 1024.7S
SISTER BAY       0902   11        CALM       N/A
KEWAUNEE LAKESHO 0900   17     280/  1/  3 1023.5R
SHEBOYGAN LAKESH 0900   21     300/  6/  7 1025.4R
PORT WASHINGTON  0900   20     330/  5/  6 1024.7
MILWAUKEE LAKESH 0900   24     320/  3/  4   N/A
KENOSHA   LAKESH 0900   25      30/  8/ 11 1023.7S
$$

TC  - TEMPERATURE IN CELSIUS
VSB - VISIBILITY IN STATUTE MILES
WCI - WIND CHILL INDEX
HX  - HEAT INDEX




USA.gov is the U.S. government's official web portal to all federal, state and local government web resources and services.